Location: Huppendorf
(49.9333°N, 11.1500°E)
Time: 11:50:42
(UTC+00:00)

STARLINK-1044 - Pass Details

Date: 27 February 2020
Orbit: 549 x 550 km, 53.0° (Epoch: 09 April)

Event Time Altitude Azimuth Distance (km) Brightness Sun altitude
Rises 18:47:11 0° 267° (W) 2,717 8.7 -19.0°
Reaches altitude 10° 18:49:27 10° 271° (W) 1,825 7.5 -19.4°
Maximum altitude 18:53:32 58° 352° (N) 644 4.0 -20.0°
Enters shadow 18:54:35 43° 46° (NE) 779 4.1 -20.2°
